Voltar ao catálogo

STARLINK-11674

AtivoComunicaçõesVLEO
NORAD 64327·PAYLOAD·🇺🇸 United States

Lançado Jun 10, 2025 de Cape Canaveral Space Force Station

Loading…

Próximas Passagens (próximas 24 horas)

TLE

AtualizadoSource: CelesTrak SupGP

Época: Sep 15, 2026, 03:51 UTC

1 64327C 25124L   26258.16090278  .00051246  00000+0  39810-3 0  2581
2 64327  43.0000 326.8347 0001508 264.4688 206.9638 15.70808823    13

Acompanhe STARLINK-11674 em tempo real com AllMySat

Download on the App Store